Voltar ao catálogo

FENGYUN 1C DEB

AtivoSSO
NORAD 30173·DEBRIS·🇨🇳 China

Lançado May 10, 1999 de Taiyuan Satellite Launch Center

Loading…

Próximas Passagens (próximas 24 horas)

TLE

AtualizadoSource: Space-Track

Época: Sep 14, 2026, 16:05 UTC

1 30173U 99025UE  26257.67049036  .00001562  00000-0  84109-3 0  9995
2 30173  98.9610 333.4853 0080267 230.1420 294.0839 14.12674900  4387

Acompanhe FENGYUN 1C DEB em tempo real com AllMySat

Download on the App Store